This is the latest recevied weather packets stored in our database for station/object GW7110. If no packets are shown the sender has not sent any weather packets the latest 1 day(s).
| Time | Temp. | Humidity | Pressure | Rain* | Wind** | Luminosity | Snow |
|---|---|---|---|---|---|---|---|
| 1778013004 | 23.33° C | 47% | 29.9 hPa | 0 mm | 0 m/s | 92 W/m² | - |
| 1778012703 | 23.33° C | 45% | 29.9 hPa | 0 mm | 0.45 m/s, 241° | 105 W/m² | - |
| 1778012401 | 23.33° C | 48% | 29.9 hPa | 0 mm | 0.45 m/s, 205° | 117 W/m² | - |
| 1778012103 | 23.89° C | 46% | 29.9 hPa | 0 mm | 0 m/s | 103 W/m² | - |
| 1778011803 | 23.89° C | 46% | 29.9 hPa | 0 mm | 0 m/s | 129 W/m² | - |
| 1778011502 | 23.89° C | 45% | 29.9 hPa | 0 mm | 0.45 m/s, 154° | 150 W/m² | - |
| 1778011202 | 24.44° C | 44% | 29.9 hPa | 0 mm | 0.45 m/s, 210° | 104 W/m² | - |
| 1778010902 | 24.44° C | 43% | 29.9 hPa | 0 mm | 0.45 m/s, 202° | 155 W/m² | - |
| 1778010602 | 25° C | 44% | 29.9 hPa | 0 mm | 0.45 m/s, 198° | 196 W/m² | - |
| 1778010302 | 25° C | 45% | 29.9 hPa | 0 mm | 0.45 m/s, 250° | 240 W/m² | - |
| 1778010002 | 25° C | 44% | 29.9 hPa | 0 mm | 0.45 m/s, 277° | 391 W/m² | - |
| 1778009702 | 25° C | 42% | 29.9 hPa | 0 mm | 0.89 m/s, 254° | 306 W/m² | - |
| 1778009405 | 25° C | 43% | 29.9 hPa | 0 mm | 0.45 m/s, 200° | 380 W/m² | - |
| 1778009102 | 25.56° C | 42% | 29.9 hPa | 0 mm | 0 m/s | 466 W/m² | - |
| 1778008802 | 25.56° C | 42% | 29.9 hPa | 0 mm | 0.45 m/s, 128° | 475 W/m² | - |
| 1778008502 | 25.56° C | 43% | 29.9 hPa | 0 mm | 0.89 m/s, 282° | 819 W/m² | - |
| 1778008201 | 25.56° C | 40% | 29.9 hPa | 0 mm | 0.45 m/s, 194° | 862 W/m² | - |
| 1778007902 | 25.56° C | 41% | 29.9 hPa | 0 mm | 1.34 m/s, 275° | 722 W/m² | - |
| 1778007601 | 25.56° C | 40% | 29.9 hPa | 0 mm | 1.34 m/s, 193° | 868 W/m² | - |
| 1778007301 | 25.56° C | 41% | 29.9 hPa | 0 mm | 0.89 m/s, 251° | 963 W/m² | - |
| 1778007002 | 25.56° C | 42% | 30 hPa | 0 mm | 0.89 m/s, 267° | 960 W/m² | - |
| 1778006701 | 25.56° C | 43% | 29.9 hPa | 0 mm | 1.34 m/s, 264° | 883 W/m² | - |
| 1778006403 | 25.56° C | 43% | 29.9 hPa | 0 mm | 0.89 m/s, 270° | 990 W/m² | - |
| 1778006102 | 25.56° C | 44% | 29.9 hPa | 0 mm | 0 m/s | 973 W/m² | - |
| 1778005803 | 25° C | 42% | 29.9 hPa | 0 mm | 0.45 m/s, 215° | 892 W/m² | - |
* Rain latest hour (hover to see other rain measurements)
** Current wind speed in m/s (hover to see current wind gust speed)